www.pogodaiklimat.ru

Погода и климат >> Архив погоды >> Франция >> Лаваль


ПОГОДА в Лавале

  • Прогноз погоды в Лавале
  • Монитор погоды в Лавале

АРХИВ ПОГОДЫ в Лавале

Время (UTC), дата Ветер
(напр.,м/с)
 
Видим.   Явления Облачность Т
(С)
Тd
(С)
f
(%)
Тe
(С)
Тes
(С)
Комфортность P
(гПа)
Po
(гПа)
Тmin
(С)
Tmax
(С)
R
(мм)
R24
(мм)
S
(см)
22 10.06 З 1 20 км н/о +9.2 +8.9 98 +9 +9 1014.4 1002.3
23 10.06 З 1 20 км н/о +8.8 +8.3 97 +9 +9 1014.0 1001.9
00 11.06 Ю 1
{3}
6000 м н/о +7.4 +7.1 98 +6 +6 1013.6 1001.4 0
01 11.06 Ю 1 300 м туман н/о +7.3 +7.2 99 +7 +7 1013.2 1001.0
02 11.06 ЮЗ 1 1000 м дымка н/о +6.7 +6.7 100 +7 +7 1012.7 1000.5
03 11.06 ЮЗ 1
{3}
500 м туман ?/? +6.4 +6.4 100 +6 +6 1012.4 1000.2 0
04 11.06 Ю 1 100 м туман н/о +5.2 +5.2 100 +5 +5 1012.1 999.8
05 11.06 Ю 2 200 м туман ?/? +5.9 +5.9 100 +4 +4 1012.0 999.8
06 11.06 ЮЗ 1
{4}
100 м туман ?/? +7.5 +7.5 100 +7 +7 1011.8 999.6 +5.0 +12.7 0
07 11.06 З 1 100 м туман ?/? +8.9 +8.9 100 +8 +8 1011.5 999.4
08 11.06 Ю 1 7000 м 10/10 60 м
[]
+9.9 +9.9 100 +10 +10 1011.4 999.3
09 11.06 ЮЗ 1
{4}
19 км н/о +12.8 +9.8 82 +13 +13 1010.7 998.8 0
10 11.06 Ю 2 20 км н/о +16.1 +9.0 63 +16 +16 1010.4 998.6
11 11.06 Ю 1 20 км 9/6 870 м
[]
+14.8 +10.2 74 +16 +22 1010.3 998.5
12 11.06 ЮВ 1
{7}
20 км 10/10 1000 м
[]
+15.9 +10.2 69 +17 +26 1010.0 998.2 0
13 11.06 ЮВ 2 19 км н/о +17.1 +7.7 54 +18 +18 1009.4 997.7
14 11.06 В 2 20 км н/о +16.6 +7.2 54 +17 +17 1009.2 997.4
15 11.06 В 4
{10}
20 км 8/0
[]
+17.2 +9.9 62 +17 +19 1009.0 997.3 0
16 11.06 ЮВ 3 20 км 9/1 1230 м
[]
+15.6 +8.8 64 +15 +18 1009.6 997.8
17 11.06 Ю 1 20 км 10/3 840 м
[]
+12.9 +9.3 79 +13 +15 1009.8 997.9 0.0
18 11.06 В 1
{4}
20 км 10/10 1500 м
[]
+13.1 +10.1 82 +13 +13 1009.6 997.7 +7.5 +18.2 0.0 0
19 11.06 В 2 16 км слаб. дождь 10/10 1500 м
[]
+12.8 +11.2 90 +12 +12 1009.6 997.7 0.2
20 11.06 СВ 1 20 км н/о +11.0 +9.7 92 +11 +11 1009.6 997.6 0.6
21 11.06 СВ 2
{5}
20 км н/о +10.7 +9.9 95 +10 +10 1009.8 997.8 0.8 0
22 11.06 СВ 1 20 км 10/4 1410 м
[]
+10.7 +10.2 97 +10 +10 1009.6 997.6 0.0
23 11.06 СВ 2 20 км н/о +9.7 +9.4 98 +8 +8 1009.4 997.4 0.2
00 12.06 СВ 2
{4}
20 км 9/9 1500 м
[]
+9.7 +9.6 99 +8 +8 1009.1 997.1 0.2 0
01 12.06 СВ 1 20 км 10/6 420 м
[]
+9.8 +9.5 98 +9 +9 1008.8 996.8
02 12.06 В 1 14 км слаб. дождь 10/4 930 м
[]
+9.8 +9.5 98 +9 +9 1008.3 996.3 0.2
01 13.06 Ю 1 6000 м 10/10 2000 м
[]
+9.9 +9.7 99 +9 +9 1010.9 998.8
02 13.06 Ю 1 7000 м 10/4 500 м
[]
+10.0 +10.0 100 +9 +9 1010.5 998.5
04 13.06 Ю 2 10 км слаб. дождь 10/10 180 м
[]
+11.1 +10.9 99 +10 +10 1010.1 998.1 0.2
05 13.06 Ю 2 19 км 10/10 210 м
[]
+11.3 +11.0 98 +10 +10 1010.3 998.3 0.0
07 13.06 ЮЗ 2 20 км 10/10 360 м
[]
+12.3 +11.2 93 +11 +11 1010.7 998.8
08 13.06 Ю 2 20 км 10/9 540 м
[]
+12.8 +11.2 90 +12 +12 1011.0 999.1
09 13.06 ЮЗ 3 20 км 10/10 540 м
[]
+13.6 +10.2 80 +13 +13 1011.0 999.1 0.2
10 13.06 ЮЗ 2 20 км 10/5 720 м
[]
+14.2 +12.2 88 +14 +18 1011.2 999.3 0.0
11 13.06 ЮЗ 4 20 км н/о +16.6 +11.1 70 +16 +16 1010.9 999.1
12 13.06 ЮЗ 4
{11}
20 км 9/9 600 м
[]
+16.6 +10.0 65 +16 +22 1010.8 999.0 0.0 0
13 13.06 ЮЗ 3 20 км 8/5 1020 м
[]
+17.1 +12.0 72 +17 +23 1010.9 999.2 1
14 13.06 ЮЗ 3 20 км н/о +17.8 +10.9 64 +18 +18 1010.9 999.2
15 13.06 ЮЗ 3
{10}
20 км 9/9 1000 м
[]
+18.4 +10.0 58 +19 +22 1010.7 999.0 1 0
16 13.06 ЮЗ 3 20 км н/о +19.2 +9.4 53 +20 +20 1010.9 999.2
17 13.06 ЮЗ 3 20 км н/о +18.5 +9.0 54 +19 +19 1011.1 999.4
18 13.06 ЮЗ 3
{11}
20 км н/о +17.4 +8.8 57 +18 +18 1011.4 999.6 +11.7 +19.6 0
19 13.06 ЮЗ 2 20 км н/о +15.7 +9.4 66 +16 +16 1011.6 999.8
20 13.06 ЮЗ 2 20 км н/о +14.3 +9.3 72 +14 +14 1012.0 1000.1
21 13.06 ЮЗ 1
{4}
20 км н/о +12.6 +9.2 80 +13 +13 1012.4 1000.4 0
22 13.06 ЮЗ 2 20 км н/о +11.0 +9.3 89 +10 +10 1012.8 1000.8
23 13.06 ЮЗ 2 20 км н/о +10.8 +9.1 89 +10 +10 1013.2 1001.2
00 14.06 З 2
{5}
20 км н/о +10.6 +9.2 91 +10 +10 1012.9 1000.9 0
01 14.06 ЮЗ 1 20 км н/о +9.9 +9.0 94 +9 +9 1013.1 1001.0
02 14.06 Ю 1 20 км н/о +9.4 +8.6 95 +10 +10 1013.1 1001.0
03 14.06 Ю 1
{2}
18 км н/о +8.4 +8.3 99 +8 +8 1013.0 1000.9 0
04 14.06 ЮВ 1 800 м туман н/о +7.8 +7.8 100 +8 +8 1013.1 1000.9
05 14.06 Ю 1 1200 м дымка н/о +8.3 +8.3 100 +8 +8 1013.3 1001.1
06 14.06 ЮЗ 1
{3}
20 км н/о +11.2 +10.6 96 +11 +11 1013.4 1001.4 +7.3 +17.5 0
07 14.06 ЮЗ 2 20 км н/о +13.5 +11.2 86 +13 +13 1013.8 1001.9
08 14.06 ЮЗ 2 20 км н/о +15.2 +11.4 78 +15 +15 1014.2 1002.3
09 14.06 ЮЗ 2
{5}
20 км н/о +15.9 +9.6 66 +16 +16 1014.1 1002.3 0
10 14.06 ЮЗ 2 20 км н/о +17.6 +10.2 62 +18 +18 1013.7 1001.9
11 14.06 ЮЗ 2 20 км н/о +18.6 +10.4 59 +20 +20 1013.8 1002.1
12 14.06 Ю 2
{7}
20 км н/о +18.9 +9.4 54 +20 +20 1013.8 1002.1 0
13 14.06 ЮЗ 2 20 км н/о +19.9 +10.0 53 +22 +22 комфорт 1013.3 1001.6
14 14.06 ЮЗ 2 20 км н/о +20.1 +9.6 51 +22 +22 комфорт 1012.8 1001.1
15 14.06 Ю 2
{6}
19 км н/о +20.8 +9.7 49 +23 +23 комфорт 1012.2 1000.6 0
16 14.06 Ю 2 20 км 9/9 1500 м
[]
+20.4 +9.9 51 +23 +24 комфорт 1011.7 1000.1
17 14.06 З 2 20 км н/о +19.9 +9.7 52 +22 +22 комфорт 1011.7 1000.0
18 14.06 З 1
{7}
20 км н/о +20.0 +9.5 51 +22 +22 комфорт 1011.7 1000.1 +11.2 +21.0 0
19 14.06 З 2 20 км н/о +18.5 +10.1 58 +20 +20 1012.3 1000.6
20 14.06 З 2 20 км 9/9
[]
+16.5 +10.1 66 +17 +17 1012.9 1001.1
21 14.06 З 2
{6}
20 км 10/0
[]
+15.2 +9.1 67 +15 +15 1013.4 1001.5 0
22 14.06 З 2 20 км 10/10 2000 м
[]
+14.0 +9.2 73 +14 +14 1013.7 1001.8
23 14.06 З 2 20 км н/о +12.7 +9.5 81 +12 +12 1014.1 1002.1
00 15.06 З 1
{6}
20 км н/о +11.5 +10.1 91 +11 +11 1014.4 1002.4 0
01 15.06 З 1 20 км н/о +10.9 +10.1 95 +10 +10 1014.9 1002.8
02 15.06 ЮЗ 1 19 км н/о +10.1 +9.5 96 +9 +9 1015.0 1002.9
03 15.06 ЮЗ 1
{4}
18 км н/о +9.9 +9.6 98 +9 +9 1014.9 1002.8 0
04 15.06 ЮЗ 2 19 км н/о +10.3 +9.8 97 +9 +9 1015.2 1003.1
05 15.06 ЮЗ 2 17 км н/о +10.7 +10.1 96 +10 +10 1015.4 1003.3
06 15.06 Ю 2
{4}
19 км н/о +12.5 +11.4 93 +12 +12 1015.4 1003.4 +9.8 +20.0 0
07 15.06 ЮЗ 2 20 км н/о +14.2 +11.9 86 +14 +14 1015.9 1004.0
08 15.06 ЮЗ 3 20 км 9/9 450 м
[]
+16.2 +11.1 72 +16 +17 1016.1 1004.3
09 15.06 ЮЗ 2
{10}
20 км 9/9 600 м
[]
+17.3 +11.1 67 +18 +19 1016.2 1004.4 0
10 15.06 ЮЗ 3 20 км 9/3 1000 м
[]
+16.2 +10.5 69 +16 +21 1016.6 1004.7
11 15.06 ЮЗ 3 20 км 10/1 1020 м
[]
+16.3 +10.2 67 +16 +22 1016.9 1005.0
12 15.06 ЮЗ 3
{10}
20 км 10/10 1000 м
[]
+15.7 +9.8 68 +15 +16 1017.3 1005.4 0
13 15.06 ЮЗ 3 20 км 10/4 1050 м
[]
+17.4 +10.7 65 +18 +22 1017.0 1005.2
14 15.06 ЮЗ 3 20 км 10/3 1050 м
[]
+18.6 +11.2 62 +19 +24 1017.1 1005.3
15 15.06 ЮЗ 3
{12}
20 км 10/10 1000 м
[]
+17.3 +11.1 67 +17 +18 1017.4 1005.6 0
16 15.06 ЮЗ 3 16 км 10/10 800 м
[]
+15.5 +12.4 82 +15 +15 1017.9 1006.0
17 15.06 ЮЗ 3 15 км слаб. дождь 10/10 600 м
[]
+15.1 +13.1 88 +14 +14 1018.1 1006.2 0.2
18 15.06 ЮЗ 3
{10}
15 км 10/10 600 м
[]
+15.5 +12.6 83 +15 +15 1018.2 1006.3 +12.5 +18.9 0.2 0
19 15.06 ЮЗ 3 19 км 10/9 270 м
[]
+14.3 +13.5 95 +13 +13 1018.6 1006.7 0.2
20 15.06 ЮЗ 2 13 км 10/10 300 м
[]
+14.1 +13.5 96 +13 +13 1018.8 1006.8 0.0
21 15.06 Ю 2
{8}
10 км 10/10 200 м
[]
+13.8 +13.2 96 +13 +13 1019.4 1007.4 0.4 0
22 15.06 Ю 2 8000 м 10/10 420 м
[]
+13.8 +13.2 96 +13 +13 1019.5 1007.5
23 15.06 Ю 2 14 км 10/10 420 м
[]
+13.9 +13.1 95 +13 +13 1019.6 1007.6
00 16.06 ЮЗ 2
{8}
14 км 10/10 300 м
[]
+13.9 +12.9 94 +14 +14 1019.7 1007.7 0
01 16.06 ЮЗ 2 15 км 10/10 400 м
[]
+14.0 +13.0 94 +14 +14 1019.7 1007.7
02 16.06 Ю 2 11 км 10/10 400 м
[]
+13.8 +13.2 96 +13 +13 1019.9 1007.9 0.0
03 16.06 Ю 2
{5}
4300 м дымка 10/10 300 м
[]
+13.4 +13.2 99 +13 +13 1019.9 1007.9 0.8 0
04 16.06 Ю 2 4500 м дымка 10/10 120 м
[]
+13.4 +13.4 100 +13 +13 1019.9 1007.9 0.6
05 16.06 Ю 2 6000 м 10/10 210 м
[]
+13.4 +13.2 99 +13 +13 1020.3 1008.3
06 16.06 Ю 2
{5}
9000 м 10/10 200 м
[]
+13.6 +13.3 98 +13 +13 1020.6 1008.6 +13.3 +15.5 2 0
07 16.06 ЮЗ 2 18 км 10/10 240 м
[]
+14.6 +13.6 94 +14 +14 1021.1 1009.1
08 16.06 ЮЗ 2 20 км 10/10 400 м
[]
+15.2 +13.2 88 +15 +15 1021.3 1009.4
09 16.06 ЮЗ 2
{8}
19 км 10/10 300 м
[]
+15.8 +13.3 85 +16 +16 1021.5 1009.6 0
10 16.06 Ю 2 20 км 10/10 600 м
[]
+16.3 +13.0 81 +17 +17 1021.6 1009.7
11 16.06 Ю 2 20 км 10/10 720 м
[]
+17.3 +12.8 75 +18 +18 1021.5 1009.6
12 16.06 ЮЗ 2
{7}
20 км 10/10 600 м
[]
+18.4 +12.6 69 +20 +20 1021.2 1009.4 0
13 16.06 Ю 2 20 км 9/3 1020 м
[]
+20.0 +12.5 62 +22 +29 комфорт 1020.9 1009.2
14 16.06 ЮЗ 3 20 км 10/1 1200 м
[]
+20.2 +11.9 59 +22 +29 комфорт 1020.8 1009.1
15 16.06 Ю 2
{8}
19 км 8/8 1000 м
[]
+21.2 +12.6 58 +23 +28 комфорт 1020.5 1008.8 0
16 16.06 Ю 2 20 км 9/9 1260 м
[]
+21.3 +12.4 57 +24 +24 комфорт 1020.2 1008.5
17 16.06 ЮЗ 2 20 км 8/8 1500 м
[]
+20.0 +12.0 60 +22 +23 комфорт 1020.2 1008.5
18 16.06 ЮЗ 2
{6}
20 км 10/10 1000 м
[]
+20.1 +11.6 58 +22 +22 комфорт 1020.1 1008.4 +13.6 +21.6 0
19 16.06 З 1 20 км н/о +19.7 +12.9 65 +22 +22 комфорт 1020.1 1008.4
20 16.06 З 1 20 км н/о +17.0 +11.9 72 +19 +19 1020.3 1008.4
21 16.06 З 1
{2}
20 км н/о +14.9 +11.1 78 +16 +16 1020.7 1008.7 0
22 16.06 штиль 0 20 км н/о +14.2 +10.8 80 +14 +14 1020.9 1008.9
23 16.06 З 1 20 км н/о +13.1 +10.6 85 +14 +14 1020.8 1008.8
00 17.06 З 1
{3}
20 км н/о +12.3 +10.2 87 +12 +12 1020.7 1008.6 0
01 17.06 СЗ 1 20 км н/о +11.9 +10.3 90 +12 +12 1020.6 1008.5
02 17.06 СЗ 1 19 км н/о +10.9 +10.0 94 +11 +11 1020.3 1008.2
03 17.06 СЗ 1
{2}
11 км н/о +10.2 +9.7 97 +11 +11 1020.4 1008.2 0
04 17.06 С 1 10 км н/о +10.0 +9.7 98 +10 +10 1020.5 1008.3
05 17.06 С 1 11 км н/о +10.7 +10.2 97 +11 +11 1020.3 1008.2
06 17.06 С 1
{3}
18 км н/о +12.9 +11.6 92 +13 +13 1020.3 1008.3 +10.0 +20.2 0
07 17.06 С 2 20 км н/о +15.2 +11.6 79 +15 +15 1020.3 1008.4
08 17.06 С 1 20 км н/о +17.5 +11.7 69 +19 +19 1019.9 1008.1
09 17.06 В 1
{3}
19 км н/о +19.6 +12.4 63 +23 +23 комфорт 1019.5 1007.8 0
10 17.06 В 1 20 км н/о +20.9 +11.5 55 +24 +24 комфорт 1019.0 1007.3
11 17.06 Ю 1 20 км н/о +22.0 +11.7 52 +24 +24 комфорт 1018.5 1006.9
12 17.06 В 1
{5}
19 км н/о +22.8 +11.8 50 +25 +25 комфорт 1017.8 1006.2 0
13 17.06 З 1 20 км н/о +23.8 +12.7 50 +26 +26 жарко 1017.7 1006.1
14 17.06 Ю 1 20 км н/о +24.6 +11.9 45 +26 +26 жарко 1017.1 1005.6
15 17.06 В 2
{5}
20 км н/о +24.8 +12.7 47 +27 +27 жарко 1016.5 1005.0 0
16 17.06 В 2
{5}
20 км н/о +25.3 +12.8 46 +27 +27 жарко 1015.8 1004.3
17 17.06 В 1 20 км н/о +25.8 +12.3 43 +27 +27 жарко 1015.6 1004.1
18 17.06 СВ 1
{3}
20 км н/о +25.9 +12.4 43 +27 +27 жарко 1015.1 1003.7 +12.9 +26.6 0
19 17.06 С 2 20 км н/о +23.1 +13.3 54 +26 +26 жарко 1015.2 1003.6
20 17.06 С 1 19 км н/о +20.8 +13.5 63 +24 +24 комфорт 1015.0 1003.4
21 17.06 С 2
{4}
20 км н/о +19.2 +13.4 69 +21 +21 комфорт 1015.5 1003.8 0
22 17.06 С 2 20 км н/о +18.1 +13.2 73 +19 +19 1015.4 1003.6

 

Местоположение метеостанции Лаваль (Франция): широта 48.03 долгота -0.73 высота над уровнем моря 97 м.

В архиве по умолчанию представлена погода в Лавале за последнюю неделю. Архивные данные за месяц целиком и за предыдущие месяцы, начиная с января 2011 года, Вы можете получить, выбрав интересующий диапазон дат из раскрывающегося списка и нажав кнопку "Ввод!".


*Определитесь, кто Вы:
робот инопланетянин человек

Внимание! Время в таблицах - всемирное. Для получения местного времени необходимо прибавить поправку, которая равна 1 ч.

Смотрите также архив погоды в соседних городах и на ближайших метеорологических станциях:

Погода в Марсе (Франция) (61 км)
Погода в Бокузе (Франция) (62 км)
Погода в Ле-Мане (Франция) (70 км)
Погода в Ренне (Франция) (74 км)
Погода в Алансоне (Франция) (76 км)
Погода на Пуэнт-дю-Оке (Франция) (111 км)
Погода в Динаре (Франция) (116 км)
Погода в Нанте (Франция) (118 км)
Погода в Туре (Франция) (127 км)
Погода в Кане (Франция) (130 км)

Пояснения к столбцам:

Ветер - указаны скорость ветра в м/с - средняя за 10 мин, порывы в срок и между сроками (в фигурных скобках) и направление, откуда дует ветер: С - северный, СВ - северо-восточный, В - восточный, ЮВ - юго-восточный, Ю - южный, ЮЗ - юго-западный, З - западный, СЗ - северо-западный.
Видимость - горизонтальная дальность видимости в метрах или километрах. При видимости от 1 до 10 км при отсутствии осадков обычно наблюдается дымка, при ухудшении видимости до 1 км и менее - туман. В сухую погоду видимость может ухудшаться дымом, пылью или мглою.
Явления - указаны атмосферные явления, наблюдавшиеся в срок или в последний час перед сроком; фигурными скобками обозначены явления, наблюдавшиеся между сроками (за 1-3 часа до срока); квадратными скобками обозначены град или гололедные отложения с указанием их диаметра в мм.
Облачность - указаны через наклонную черту общая и нижняя облачность в баллах и высота нижней границы облаков в метрах; квадратными скобками обозначены формы облаков: Ci - перистые, Cs - перисто-слоистые, Cc - перисто-кучевые, Ac - высококучевые, As - высокослоистые, Sc - слоисто-кучевые, Ns - слоисто-дождевые, Cu - кучевые, Cb - кучево-дождевые. Подробнее классификацию облаков см. в Атласе облаков (PDF).
T - Температура воздуха - температура, измеренная на высоте 2 м над землей.
Td - Температура точки росы - температура, при понижении до которой содержащийся в воздухе водяной пар достигнет насыщения.
f - Относительная влажность воздуха - влажноcть воздуха, измеренная на высоте 2 м над землей.
Te - Эффективная температура - температура, которую ощущает одетый по сезону человек в тени. Характеристика душности погоды. При расчете учитывается влияние влажности воздуха и скорости ветра на теплоощущения человека.
Tes - Эффективная температура на солнце - температура, которую ощущает человек, с поправкой на солнечный нагрев. Характеристика знойности погоды. Зависит от высоты солнца над горизонтом, облачности и скорости ветра. Ночью, в пасмурную погоду, а также при ветре 12 м/с и более поправка равна нулю.
P - Атмосферное давление - приведенное к уровню моря атмосферное давление.
Po - Атмосферное давление - измеренное на уровне метеостанции атмосферное давление.
Tmin - Минимальная температура - минимум температуры воздуха на высоте 2 м над землей.
Tmax - Максимальная температура - максимум температуры воздуха на высоте 2 м над землей.
R - Количество осадков - Количество выпавших осадков за период времени, мм. При наведении курсора мыши на число - период времени, за который выпало указанное количество осадков.
R24 - Количество осадков - Количество выпавших осадков за 24 часа, мм.
S - Снежный покров - Высота снежного покрова, см. При наведении курсора мыши на число - состояние снежного покрова и степень покрытия местности в баллах.